| time (UTC) | temp F | wind direction | speed knots | gust knots | rain 1hr in | rain 24hr in | rain mn in | humidity % | barometer mb |
| 20260906083050 | 82 | 130 | 0.0 | 0.0 | 0.00 | 0.00 | 0.00 | 75 | 1009.2 |
| 20260906081547 | 82 | 193 | 0.9 | 0.0 | 0.00 | 0.00 | 0.00 | 74 | 1009.2 |
| 20260906080053 | 82 | 180 | 0.9 | 0.0 | 0.00 | 0.00 | 0.00 | 74 | 1009.4 |
| 20260906074549 | 82 | 184 | 0.9 | 0.0 | 0.00 | 0.00 | 0.00 | 74 | 1009.6 |
| 20260906073042 | 83 | 189 | 0.0 | 0.0 | 0.00 | 0.00 | 0.00 | 74 | 1009.7 |
| 20260906071540 | 83 | 114 | 0.9 | 0.0 | 0.00 | 0.00 | 0.00 | 73 | 1010.0 |
| 20260906070039 | 83 | 142 | 0.9 | 0.0 | 0.00 | 0.00 | 0.00 | 73 | 1010.1 |
| 20260906064537 | 83 | 230 | 0.9 | 0.0 | 0.00 | 0.00 | 0.00 | 73 | 1010.1 |
| 20260906063044 | 83 | 143 | 0.9 | 0.0 | 0.00 | 0.00 | 0.00 | 72 | 1010.3 |
| 20260906061534 | 84 | 222 | 0.9 | 0.0 | 0.00 | 0.00 | 0.00 | 72 | 1010.3 |
| 20260906060035 | 84 | 51 | 0.9 | 0.0 | 0.00 | 0.00 | 0.00 | 71 | 1010.5 |
| 20260906054550 | 84 | 162 | 0.9 | 0.0 | 0.00 | 0.00 | 0.00 | 71 | 1010.4 |
| 20260906053031 | 84 | 188 | 0.0 | 0.0 | 0.00 | 0.00 | 0.00 | 71 | 1010.3 |
| 20260906051535 | 84 | 170 | 1.7 | 0.0 | 0.00 | 0.00 | 0.00 | 71 | 1010.3 |
| 20260906050033 | 84 | 118 | 0.9 | 0.0 | 0.00 | 0.00 | 0.00 | 71 | 1010.5 |
| 20260906044529 | 84 | 170 | 0.0 | 0.0 | 0.00 | 0.00 | 0.00 | 70 | 1010.5 |
| 20260906043027 | 84 | 133 | 0.9 | 0.0 | 0.00 | 0.00 | 0.00 | 69 | 1010.5 |
| 20260906041526 | 84 | 162 | 0.9 | 0.0 | 0.00 | 0.00 | 0.00 | 68 | 1010.3 |
| 20260906040033 | 85 | 158 | 0.9 | 0.0 | 0.00 | 0.00 | 0.00 | 67 | 1010.2 |
| 20260906034525 | 85 | 140 | 0.9 | 0.0 | 0.00 | 0.00 | 0.00 | 66 | 1010.4 |
| 20260906033024 | 86 | 149 | 0.9 | 0.0 | 0.00 | 0.00 | 0.00 | 65 | 1010.2 |
| 20260906031555 | 86 | 131 | 1.7 | 0.0 | 0.00 | 0.00 | 0.00 | 63 | 1010.0 |
| 20260906030024 | 87 | 133 | 1.7 | 0.0 | 0.00 | 0.00 | 0.00 | 62 | 1009.9 |
| 20260906024548 | 88 | 98 | 1.7 | 0.0 | 0.00 | 0.00 | 0.00 | 61 | 1009.5 |
| 20260906023024 | 88 | 114 | 0.9 | 0.0 | 0.00 | 0.00 | 0.00 | 59 | 1009.2 |
| 20260906021523 | 89 | 124 | 1.7 | 0.0 | 0.00 | 0.00 | 0.00 | 58 | 1008.7 |
| 20260906020024 | 89 | 77 | 1.7 | 0.0 | 0.00 | 0.00 | 0.00 | 57 | 1008.4 |
| 20260906014522 | 90 | 121 | 1.7 | 0.0 | 0.00 | 0.00 | 0.00 | 57 | 1008.3 |
| 20260906013021 | 91 | 156 | 2.6 | 0.0 | 0.00 | 0.00 | 0.00 | 56 | 1008.1 |
| 20260906011520 | 92 | 321 | 2.6 | 0.0 | 0.00 | 0.00 | 0.00 | 54 | 1008.1 |
| 20260906010039 | 93 | 118 | 1.7 | 0.0 | 0.00 | 0.00 | 0.00 | 51 | 1007.9 |
| 20260906004520 | 93 | 171 | 1.7 | 0.0 | 0.00 | 0.00 | 0.00 | 49 | 1007.9 |
| 20260906003019 | 94 | 68 | 0.9 | 0.0 | 0.00 | 0.00 | 0.00 | 48 | 1007.9 |
| 20260906001522 | 96 | 70 | 0.9 | 0.0 | 0.00 | 0.00 | 0.00 | 46 | 1007.8 |
| 20260906000022 | 96 | 145 | 0.9 | 0.0 | 0.00 | 0.00 | 0.00 | 43 | 1007.8 |
| 20260905234518 | 97 | 110 | 0.0 | 0.0 | 0.00 | 0.00 | 0.00 | 42 | 1007.7 |
| 20260905233017 | 98 | 156 | 0.9 | 0.0 | 0.00 | 0.00 | 0.00 | 41 | 1007.6 |
| 20260905231517 | 98 | 351 | 0.9 | 0.0 | 0.00 | 0.00 | 0.00 | 40 | 1007.6 |
| 20260905230030 | 99 | 54 | 0.9 | 0.0 | 0.00 | 0.00 | 0.00 | 39 | 1007.6 |
| 20260905224519 | 99 | 111 | 0.9 | 0.0 | 0.00 | 0.00 | 0.00 | 39 | 1007.6 |
| 20260905223017 | 99 | 167 | 0.9 | 0.0 | 0.00 | 0.00 | 0.00 | 39 | 1007.6 |
| 20260905221513 | 99 | 104 | 0.9 | 0.0 | 0.00 | 0.00 | 0.00 | 39 | 1007.8 |
| 20260905220016 | 97 | 122 | 0.9 | 0.0 | 0.00 | 0.00 | 0.00 | 41 | 1008.0 |
| 20260905214512 | 98 | 108 | 0.9 | 0.0 | 0.00 | 0.00 | 0.00 | 40 | 1007.9 |
| 20260905213011 | 97 | 56 | 0.9 | 0.0 | 0.00 | 0.00 | 0.00 | 41 | 1007.9 |
| 20260905211529 | 99 | 139 | 0.9 | 0.0 | 0.00 | 0.00 | 0.00 | 40 | 1008.2 |
| 20260905210010 | 101 | 135 | 1.7 | 0.0 | 0.00 | 0.00 | 0.00 | 39 | 1008.3 |
| 20260905204505 | 100 | 144 | 0.9 | 0.0 | 0.00 | 0.00 | 0.00 | 39 | 1008.6 |
| 20260905203003 | 99 | 120 | 1.7 | 0.0 | 0.00 | 0.00 | 0.00 | 40 | 1008.7 |
| 20260905201606 | 98 | 250 | 0.9 | 0.0 | 0.00 | 0.00 | 0.00 | 41 | 1009.0 |
| 20260905200117 | 98 | 252 | 1.7 | 0.0 | 0.00 | 0.00 | 0.00 | 40 | 1009.4 |
| 20260905194555 | 98 | 124 | 1.7 | 0.0 | 0.00 | 0.00 | 0.00 | 40 | 1009.6 |
| 20260905193053 | 98 | 153 | 1.7 | 0.0 | 0.00 | 0.00 | 0.00 | 42 | 1009.8 |
| 20260905191550 | 97 | 138 | 1.7 | 0.0 | 0.00 | 0.00 | 0.00 | 42 | 1010.2 |
| 20260905190047 | 97 | 104 | 1.7 | 0.0 | 0.00 | 0.00 | 0.00 | 41 | 1010.4 |
| 20260905184545 | 96 | 225 | 1.7 | 0.0 | 0.00 | 0.00 | 0.00 | 39 | 1010.7 |
| 20260905183045 | 96 | 45 | 1.7 | 0.0 | 0.00 | 0.00 | 0.00 | 45 | 1011.0 |
| 20260905181542 | 95 | 100 | 1.7 | 0.0 | 0.00 | 0.00 | 0.00 | 49 | 1011.1 |
| 20260905180040 | 95 | 199 | 1.7 | 0.0 | 0.00 | 0.00 | 0.00 | 46 | 1011.5 |
| 20260905174543 | 95 | 223 | 1.7 | 0.0 | 0.00 | 0.00 | 0.00 | 48 | 1011.8 |
| 20260905173054 | 94 | 54 | 1.7 | 0.0 | 0.00 | 0.00 | 0.00 | 50 | 1011.9 |
| 20260905171536 | 93 | 131 | 1.7 | 0.0 | 0.00 | 0.00 | 0.00 | 51 | 1012.1 |
| 20260905170031 | 92 | 148 | 0.9 | 0.0 | 0.00 | 0.00 | 0.00 | 55 | 1012.1 |
| 20260905164530 | 92 | 197 | 1.7 | 0.0 | 0.00 | 0.00 | 0.00 | 56 | 1012.4 |
| 20260905163027 | 91 | 322 | 1.7 | 0.0 | 0.00 | 0.00 | 0.00 | 60 | 1012.3 |
| 20260905161528 | 91 | 180 | 1.7 | 0.0 | 0.00 | 0.00 | 0.00 | 61 | 1012.2 |
| 20260905160022 | 90 | 160 | 1.7 | 0.0 | 0.00 | 0.00 | 0.00 | 62 | 1012.3 |
| 20260905154519 | 88 | 303 | 0.9 | 0.0 | 0.00 | 0.00 | 0.00 | 65 | 1012.3 |
| 20260905153018 | 88 | 191 | 0.9 | 0.0 | 0.00 | 0.00 | 0.00 | 66 | 1012.2 |
| 20260905151514 | 86 | 235 | 0.9 | 0.0 | 0.00 | 0.00 | 0.00 | 71 | 1012.2 |
| 20260905150010 | 85 | 209 | 0.9 | 0.0 | 0.00 | 0.00 | 0.00 | 73 | 1012.4 |
| 20260905144506 | 83 | 197 | 1.7 | 0.0 | 0.00 | 0.00 | 0.00 | 77 | 1012.3 |
| 20260905143003 | 82 | 251 | 0.9 | 0.0 | 0.00 | 0.00 | 0.00 | 80 | 1012.3 |
| 20260905141603 | 81 | 153 | 0.9 | 0.0 | 0.00 | 0.00 | 0.00 | 83 | 1012.3 |
| 20260905140100 | 79 | 219 | 0.9 | 0.0 | 0.00 | 0.00 | 0.00 | 86 | 1012.1 |
| 20260905134602 | 79 | 189 | 0.9 | 0.0 | 0.00 | 0.00 | 0.00 | 87 | 1012.2 |
| 20260905133058 | 78 | 145 | 0.9 | 0.0 | 0.00 | 0.00 | 0.00 | 91 | 1011.9 |
| 20260905131553 | 77 | 167 | 0.0 | 0.0 | 0.00 | 0.00 | 0.00 | 92 | 1011.7 |
| 20260905130053 | 75 | 115 | 0.0 | 0.0 | 0.00 | 0.00 | 0.00 | 92 | 1011.5 |
| 20260905124551 | 75 | 115 | 0.0 | 0.0 | 0.00 | 0.00 | 0.00 | 91 | 1011.4 |
| 20260905123049 | 75 | 115 | 0.0 | 0.0 | 0.00 | 0.00 | 0.00 | 91 | 1011.4 |
| 20260905121549 | 75 | 115 | 0.0 | 0.0 | 0.00 | 0.00 | 0.00 | 90 | 1011.2 |
| 20260905120047 | 75 | 115 | 0.0 | 0.0 | 0.00 | 0.00 | 0.00 | 90 | 1010.9 |
| 20260905114546 | 75 | 115 | 0.0 | 0.0 | 0.00 | 0.00 | 0.00 | 90 | 1010.9 |
| 20260905113045 | 75 | 115 | 0.0 | 0.0 | 0.00 | 0.00 | 0.00 | 89 | 1010.9 |
| 20260905111543 | 76 | 115 | 0.0 | 0.0 | 0.00 | 0.00 | 0.00 | 89 | 1010.8 |
| 20260905110055 | 76 | 115 | 0.0 | 0.0 | 0.00 | 0.00 | 0.00 | 89 | 1010.7 |
| 20260905104541 | 76 | 115 | 0.0 | 0.0 | 0.00 | 0.00 | 0.00 | 89 | 1010.7 |
| 20260905103048 | 76 | 115 | 0.0 | 0.0 | 0.00 | 0.00 | 0.00 | 88 | 1010.6 |
| 20260905101551 | 77 | 115 | 0.0 | 0.0 | 0.00 | 0.00 | 0.00 | 87 | 1010.7 |
| 20260905100037 | 77 | 115 | 0.0 | 0.0 | 0.00 | 0.00 | 0.00 | 87 | 1010.6 |
| 20260905094536 | 77 | 115 | 0.0 | 0.0 | 0.00 | 0.00 | 0.00 | 87 | 1010.6 |
| 20260905093034 | 78 | 111 | 0.0 | 0.0 | 0.00 | 0.00 | 0.00 | 86 | 1010.4 |
| 20260905091533 | 78 | 209 | 0.0 | 0.0 | 0.00 | 0.00 | 0.00 | 86 | 1010.6 |
| 20260905090033 | 78 | 200 | 0.0 | 0.0 | 0.00 | 0.00 | 0.00 | 86 | 1010.6 |
| 20260905084530 | 78 | 201 | 0.0 | 0.0 | 0.00 | 0.00 | 0.00 | 85 | 1010.7 |